Location: Miles
(41.4492°N, 81.6087°W)
Time: 15:41:17
(UTC+00:00)

Vanguard 1 Rocket - Pass Details

Date: 14 September 2024
Orbit: 650 x 4218 km, 34.3° (Epoch: 07 October)

Event Time Altitude Azimuth Distance (km) Brightness Sun altitude
Rises 06:36:25 0° 190° (S) 4,831 - -42.2°
Reaches altitude 10° 06:40:03 10° 176° (S) 4,315 - -41.9°
Exits shadow 06:47:28 23° 137° (SE) 4,209 10.5 -41.3°
Maximum altitude 06:49:17 24° 128° (SE) 4,368 10.7 -41.1°
Drops below altitude 10° 07:03:01 10° 85° (E) 6,662 12.1 -39.8°
Sets 07:10:43 0° 75° (ENE) 8,144 12.8 -39.0°
